QFA342 YSSY-YMML

Flight info

Callsign QFA342
Flight time 1h 9m
Altitude 38000
Route WOL2 WOL H65 LEECE Q29 ML DCT
Aircraft A339/H-SADE1E2E3GHIJ3J5M1P2RWXY/LB2D1

Departure

Time 2026-05-01 09:42
Airport Sydney Kingsford Smith International Airport (YSSY)

Arrival

Time 2026-05-01 10:51
Airport Melbourne Airport (YMML)
Time Latitude Longitude Altitude Speed Heading
2026-05-01 08:40 -33.93153 151.17619 33 ft 0 kts 111°
2026-05-01 09:26 -33.93144 151.17592 33 ft 3 kts 111°
2026-05-01 09:26 -33.93138 151.17572 32 ft 2 kts 111°
2026-05-01 09:27 -33.93121 151.17535 32 ft 3 kts 140°
2026-05-01 09:27 -33.93107 151.17523 31 ft 3 kts 161°
2026-05-01 09:27 -33.93101 151.17520 32 ft 1 kts 171°
2026-05-01 09:28 -33.93123 151.17524 31 ft 5 kts 171°
2026-05-01 09:28 -33.93125 151.17524 30 ft 0 kts 171°
2026-05-01 09:30 -33.93128 151.17525 31 ft 3 kts 169°
2026-05-01 09:31 -33.93185 151.17540 33 ft 14 kts 167°
2026-05-01 09:31 -33.93308 151.17575 33 ft 22 kts 168°
2026-05-01 09:31 -33.93647 151.17646 33 ft 26 kts 155°
2026-05-01 09:32 -33.93839 151.17733 26 ft 31 kts 147°
2026-05-01 09:32 -33.94143 151.17843 27 ft 0 kts 167°
2026-05-01 09:33 -33.94145 151.17843 27 ft 2 kts 167°
2026-05-01 09:33 -33.94188 151.17854 27 ft 11 kts 168°
2026-05-01 09:33 -33.94444 151.17901 27 ft 21 kts 195°
2026-05-01 09:34 -33.94554 151.17892 27 ft 16 kts 169°
2026-05-01 09:34 -33.94629 151.17910 27 ft 13 kts 168°
2026-05-01 09:34 -33.94821 151.17961 29 ft 5 kts 167°
2026-05-01 09:35 -33.94857 151.17971 28 ft 11 kts 167°
2026-05-01 09:35 -33.95070 151.18026 29 ft 20 kts 167°
2026-05-01 09:35 -33.95191 151.17997 28 ft 14 kts 245°
2026-05-01 09:36 -33.95211 151.17914 27 ft 0 kts 257°
2026-05-01 09:36 -33.95212 151.17912 27 ft 1 kts 257°
2026-05-01 09:37 -33.95224 151.17848 30 ft 14 kts 256°
2026-05-01 09:37 -33.95401 151.17595 25 ft 27 kts 167°
2026-05-01 09:37 -33.95501 151.17621 26 ft 16 kts 167°
2026-05-01 09:38 -33.95753 151.17687 27 ft 21 kts 167°
2026-05-01 09:38 -33.95915 151.17728 28 ft 26 kts 169°
2026-05-01 09:38 -33.96099 151.17775 27 ft 28 kts 168°
2026-05-01 09:39 -33.96415 151.17874 26 ft 14 kts 142°
2026-05-01 09:39 -33.96429 151.17896 26 ft 0 kts 117°
2026-05-01 09:40 -33.96428 151.17999 27 ft 18 kts 76°
2026-05-01 09:40 -33.96349 151.18042 27 ft 14 kts 354°
2026-05-01 09:41 -33.96333 151.18039 27 ft 1 kts 349°
2026-05-01 09:41 -33.96268 151.18024 31 ft 40 kts 349°
2026-05-01 09:41 -33.95705 151.17878 27 ft 124 kts 348°
2026-05-01 09:42 -33.94614 151.17602 37 ft 194 kts 349°
2026-05-01 09:42 -33.93164 151.17213 405 ft 233 kts 348°
2026-05-01 09:42 -33.89897 151.16354 2223 ft 240 kts 350°
2026-05-01 09:43 -33.86594 151.15418 3833 ft 245 kts 349°
2026-05-01 09:43 -33.85004 151.14903 4891 ft 234 kts 341°
2026-05-01 09:43 -33.83621 151.13690 4937 ft 270 kts 306°
2026-05-01 09:44 -33.83515 151.09181 5163 ft 281 kts 249°
2026-05-01 09:44 -33.84283 151.07008 5044 ft 283 kts 251°
2026-05-01 09:44 -33.84768 151.04758 5010 ft 275 kts 261°
2026-05-01 09:45 -33.85043 151.02499 5017 ft 279 kts 266°
2026-05-01 09:45 -33.85477 150.97914 5021 ft 276 kts 268°
2026-05-01 09:45 -33.85536 150.95613 4995 ft 275 kts 263°
2026-05-01 09:46 -33.86280 150.93486 5018 ft 280 kts 229°
2026-05-01 09:46 -33.87873 150.92187 4979 ft 281 kts 197°
2026-05-01 09:46 -33.89766 150.91805 5126 ft 277 kts 185°
2026-05-01 09:46 -33.91717 150.91555 5007 ft 279 kts 186°
2026-05-01 09:47 -33.93631 150.91256 5016 ft 282 kts 186°
2026-05-01 09:47 -33.95612 150.91000 5741 ft 278 kts 184°
2026-05-01 09:47 -33.97494 150.90831 6649 ft 277 kts 182°
2026-05-01 09:47 -33.99459 150.90665 7117 ft 286 kts 183°
2026-05-01 09:48 -34.00131 150.90610 7380 ft 284 kts 181°
2026-05-01 09:49 -34.09372 150.93816 10210 ft 303 kts 176°
2026-05-01 09:49 -34.11479 150.93711 10824 ft 305 kts 188°
2026-05-01 09:49 -34.13514 150.93083 11400 ft 306 kts 198°
2026-05-01 09:49 -34.15557 150.92216 11733 ft 319 kts 199°
2026-05-01 09:50 -34.17741 150.91402 11846 ft 339 kts 194°
2026-05-01 09:50 -34.20123 150.90732 11894 ft 360 kts 192°
2026-05-01 09:50 -34.22591 150.89980 12339 ft 365 kts 195°
2026-05-01 09:50 -34.25021 150.89102 13086 ft 364 kts 197°
2026-05-01 09:51 -34.27452 150.88295 13604 ft 369 kts 194°
2026-05-01 09:51 -34.29950 150.87560 14228 ft 370 kts 194°
2026-05-01 09:51 -34.31641 150.87028 14578 ft 373 kts 195°
2026-05-01 09:51 -34.34969 150.85876 15281 ft 376 kts 196°
2026-05-01 09:52 -34.37511 150.85052 15827 ft 379 kts 194°
2026-05-01 09:52 -34.40070 150.84267 16349 ft 382 kts 194°
2026-05-01 09:52 -34.42653 150.83416 16901 ft 385 kts 195°
2026-05-01 09:52 -34.45242 150.82535 17458 ft 388 kts 195°
2026-05-01 09:53 -34.47863 150.81696 18031 ft 392 kts 194°
2026-05-01 09:53 -34.50514 150.80860 18594 ft 395 kts 195°
2026-05-01 09:53 -34.53174 150.79964 19129 ft 398 kts 197°
2026-05-01 09:53 -34.55693 150.78564 19605 ft 400 kts 217°
2026-05-01 09:54 -34.57038 150.77049 20014 ft 399 kts 230°
2026-05-01 09:54 -34.59254 150.73429 20701 ft 402 kts 236°
2026-05-01 09:54 -34.60334 150.71600 21065 ft 403 kts 235°
2026-05-01 09:54 -34.62553 150.67963 21842 ft 406 kts 235°
2026-05-01 09:55 -34.64224 150.65177 22379 ft 409 kts 236°
2026-05-01 09:55 -34.65884 150.62363 22907 ft 411 kts 236°
2026-05-01 09:55 -34.67581 150.59548 23415 ft 414 kts 235°
2026-05-01 09:55 -34.69303 150.56726 23897 ft 417 kts 235°
2026-05-01 09:56 -34.70462 150.54800 24172 ft 419 kts 235°
2026-05-01 09:56 -34.72726 150.50978 24682 ft 423 kts 236°
2026-05-01 09:56 -34.73878 150.49058 24926 ft 425 kts 235°
2026-05-01 09:56 -34.76229 150.45170 25433 ft 428 kts 235°
2026-05-01 09:57 -34.77388 150.43227 25671 ft 430 kts 236°
2026-05-01 09:57 -34.79141 150.40267 26038 ft 432 kts 236°
2026-05-01 09:57 -34.80919 150.37298 26387 ft 435 kts 236°
2026-05-01 09:57 -34.82723 150.34297 26741 ft 437 kts 236°
2026-05-01 09:58 -34.84511 150.31288 27089 ft 440 kts 236°
2026-05-01 09:58 -34.86301 150.28271 27415 ft 443 kts 236°
2026-05-01 09:58 -34.88123 150.25222 27767 ft 445 kts 236°
2026-05-01 09:58 -34.89948 150.22165 28089 ft 448 kts 236°
2026-05-01 09:59 -34.91775 150.19079 28399 ft 451 kts 236°
2026-05-01 09:59 -34.93626 150.15951 28417 ft 461 kts 236°
2026-05-01 09:59 -34.97171 150.09994 28435 ft 478 kts 236°
2026-05-01 10:00 -35.01120 150.03306 28587 ft 491 kts 236°
2026-05-01 10:00 -35.03120 149.99939 29010 ft 489 kts 236°
2026-05-01 10:00 -35.05079 149.96624 29415 ft 487 kts 237°
2026-05-01 10:01 -35.07069 149.93239 29786 ft 487 kts 237°
2026-05-01 10:01 -35.08995 149.89973 30177 ft 487 kts 237°
2026-05-01 10:01 -35.10964 149.86642 30578 ft 486 kts 237°
2026-05-01 10:01 -35.12924 149.83309 30957 ft 484 kts 237°
2026-05-01 10:02 -35.14887 149.79961 31390 ft 481 kts 237°
2026-05-01 10:02 -35.16809 149.76697 31840 ft 477 kts 237°
2026-05-01 10:02 -35.18760 149.73379 32143 ft 472 kts 237°
2026-05-01 10:02 -35.20641 149.70161 32162 ft 472 kts 237°
2026-05-01 10:03 -35.24474 149.63618 32187 ft 472 kts 237°
2026-05-01 10:03 -35.28260 149.57137 32723 ft 459 kts 237°
2026-05-01 10:04 -35.30099 149.53988 33222 ft 448 kts 237°
2026-05-01 10:04 -35.31894 149.50920 33760 ft 438 kts 237°
2026-05-01 10:04 -35.33639 149.47917 34293 ft 427 kts 237°
2026-05-01 10:04 -35.35340 149.44987 34766 ft 416 kts 237°
2026-05-01 10:05 -35.36989 149.42164 35227 ft 405 kts 237°
2026-05-01 10:05 -35.38612 149.39372 35542 ft 399 kts 237°
2026-05-01 10:05 -35.40214 149.36597 35782 ft 401 kts 237°
2026-05-01 10:05 -35.41852 149.33776 36047 ft 408 kts 237°
2026-05-01 10:06 -35.43516 149.30921 36313 ft 414 kts 237°
2026-05-01 10:06 -35.45204 149.27998 36584 ft 421 kts 237°
2026-05-01 10:06 -35.46909 149.25039 36844 ft 428 kts 237°
2026-05-01 10:06 -35.48628 149.22081 37111 ft 434 kts 236°
2026-05-01 10:07 -35.50279 149.19232 37364 ft 440 kts 237°
2026-05-01 10:07 -35.52031 149.16183 37634 ft 447 kts 237°
2026-05-01 10:07 -35.53866 149.12998 37922 ft 453 kts 236°
2026-05-01 10:07 -35.55703 149.09827 38199 ft 458 kts 236°
2026-05-01 10:08 -35.59436 149.03322 38381 ft 469 kts 236°
2026-05-01 10:08 -35.61312 149.00068 38387 ft 463 kts 236°
2026-05-01 10:09 -35.65005 148.93634 38394 ft 458 kts 237°
2026-05-01 10:09 -35.68658 148.87261 38399 ft 458 kts 237°
2026-05-01 10:10 -35.72339 148.80815 38398 ft 458 kts 237°
2026-05-01 10:10 -35.77676 148.71469 38405 ft 458 kts 237°
2026-05-01 10:11 -35.81332 148.65042 38400 ft 458 kts 237°
2026-05-01 10:11 -35.84992 148.58597 38396 ft 458 kts 237°
2026-05-01 10:12 -35.88650 148.52153 38396 ft 457 kts 237°
2026-05-01 10:13 -35.94071 148.42517 38390 ft 457 kts 237°
2026-05-01 10:13 -35.97717 148.36051 38388 ft 457 kts 237°
2026-05-01 10:14 -36.03070 148.26507 38371 ft 457 kts 237°
2026-05-01 10:14 -36.06677 148.20047 38365 ft 457 kts 237°
2026-05-01 10:15 -36.10224 148.13713 38370 ft 457 kts 237°
2026-05-01 10:15 -36.13722 148.07427 38360 ft 457 kts 237°
2026-05-01 10:16 -36.17353 148.00971 38354 ft 457 kts 237°
2026-05-01 10:17 -36.22764 147.91251 38346 ft 457 kts 237°
2026-05-01 10:17 -36.28161 147.81529 38345 ft 457 kts 238°
2026-05-01 10:18 -36.33493 147.71920 38348 ft 457 kts 238°
2026-05-01 10:19 -36.37000 147.65581 38339 ft 457 kts 238°
2026-05-01 10:19 -36.40583 147.59060 38344 ft 457 kts 238°
2026-05-01 10:20 -36.45972 147.49262 38340 ft 458 kts 238°
2026-05-01 10:20 -36.49544 147.42750 38347 ft 458 kts 238°
2026-05-01 10:21 -36.54908 147.32934 38339 ft 457 kts 238°
2026-05-01 10:22 -36.60254 147.23130 38343 ft 457 kts 238°
2026-05-01 10:23 -36.65624 147.13267 38342 ft 457 kts 239°
2026-05-01 10:23 -36.70963 147.03419 38350 ft 457 kts 239°
2026-05-01 10:24 -36.78072 146.90263 38353 ft 457 kts 239°
2026-05-01 10:25 -36.85157 146.77099 38346 ft 457 kts 239°
2026-05-01 10:26 -36.88680 146.70529 38331 ft 457 kts 239°
2026-05-01 10:26 -36.92271 146.63822 36897 ft 468 kts 239°
2026-05-01 10:27 -36.95887 146.57068 35225 ft 467 kts 239°
2026-05-01 10:27 -36.99507 146.50270 33530 ft 465 kts 239°
2026-05-01 10:28 -37.01304 146.46897 32659 ft 465 kts 239°
2026-05-01 10:28 -37.04902 146.40140 30981 ft 466 kts 239°
2026-05-01 10:28 -37.06674 146.36794 30163 ft 467 kts 238°
2026-05-01 10:29 -37.10274 146.30022 29205 ft 460 kts 238°
2026-05-01 10:29 -37.12060 146.26637 29343 ft 471 kts 239°
2026-05-01 10:30 -37.15762 146.19629 28542 ft 487 kts 238°
2026-05-01 10:30 -37.19486 146.12583 27027 ft 479 kts 239°
2026-05-01 10:31 -37.23087 146.05738 25599 ft 468 kts 239°
2026-05-01 10:31 -37.26664 145.98926 24227 ft 458 kts 239°
2026-05-01 10:32 -37.30140 145.92301 22712 ft 450 kts 239°
2026-05-01 10:32 -37.31271 145.90144 22212 ft 447 kts 239°
2026-05-01 10:32 -37.35218 145.82628 20489 ft 437 kts 239°
2026-05-01 10:33 -37.38532 145.76301 19079 ft 430 kts 239°
2026-05-01 10:33 -37.41757 145.70140 17544 ft 407 kts 239°
2026-05-01 10:34 -37.42782 145.68183 17031 ft 400 kts 239°
2026-05-01 10:34 -37.44786 145.64332 16055 ft 386 kts 239°
2026-05-01 10:34 -37.46246 145.61534 15347 ft 378 kts 239°
2026-05-01 10:35 -37.49101 145.56122 13921 ft 366 kts 239°
2026-05-01 10:35 -37.50488 145.53470 13149 ft 360 kts 239°
2026-05-01 10:35 -37.51408 145.51708 12646 ft 355 kts 239°
2026-05-01 10:35 -37.52758 145.49133 11894 ft 349 kts 239°
2026-05-01 10:36 -37.55813 145.43294 10224 ft 336 kts 239°
2026-05-01 10:36 -37.56675 145.41638 9721 ft 332 kts 239°
2026-05-01 10:36 -37.57936 145.39229 9124 ft 322 kts 239°
2026-05-01 10:37 -37.59117 145.36979 9148 ft 301 kts 239°
2026-05-01 10:37 -37.61375 145.32627 9000 ft 285 kts 239°
2026-05-01 10:37 -37.62459 145.30552 8980 ft 291 kts 240°
2026-05-01 10:38 -37.63559 145.28431 8983 ft 287 kts 240°
2026-05-01 10:38 -37.64657 145.26320 9002 ft 288 kts 239°
2026-05-01 10:38 -37.65754 145.24221 8948 ft 281 kts 239°
2026-05-01 10:38 -37.66838 145.22137 8306 ft 287 kts 240°
2026-05-01 10:39 -37.67927 145.20032 7941 ft 283 kts 240°
2026-05-01 10:39 -37.69006 145.17968 7531 ft 281 kts 240°
2026-05-01 10:39 -37.70040 145.15993 7395 ft 260 kts 240°
2026-05-01 10:39 -37.71005 145.14128 6856 ft 254 kts 241°
2026-05-01 10:40 -37.71979 145.12239 6154 ft 255 kts 239°
2026-05-01 10:40 -37.73290 145.10687 5297 ft 267 kts 207°
2026-05-01 10:40 -37.75063 145.10111 5020 ft 264 kts 189°
2026-05-01 10:40 -37.76922 145.09785 4850 ft 268 kts 192°
2026-05-01 10:41 -37.78726 145.09331 4981 ft 270 kts 194°
2026-05-01 10:41 -37.80584 145.08869 4952 ft 270 kts 192°
2026-05-01 10:41 -37.84293 145.08637 4959 ft 273 kts 158°
2026-05-01 10:42 -37.85767 145.10046 4978 ft 270 kts 120°
2026-05-01 10:42 -37.86341 145.12192 5120 ft 251 kts 92°
2026-05-01 10:42 -37.86535 145.14483 5058 ft 264 kts 92°
2026-05-01 10:42 -37.86793 145.16734 4974 ft 254 kts 94°
2026-05-01 10:43 -37.87053 145.18987 4963 ft 261 kts 92°
2026-05-01 10:43 -37.87158 145.21221 4928 ft 253 kts 76°
2026-05-01 10:43 -37.86466 145.23092 4888 ft 224 kts 39°
2026-05-01 10:43 -37.85108 145.23966 4190 ft 226 kts
2026-05-01 10:44 -37.83576 145.23797 3942 ft 219 kts 351°
2026-05-01 10:44 -37.82141 145.23190 3834 ft 216 kts 327°
2026-05-01 10:44 -37.81040 145.21794 3987 ft 234 kts 312°
2026-05-01 10:44 -37.80085 145.20213 3979 ft 225 kts 311°
2026-05-01 10:45 -37.79084 145.18644 3990 ft 231 kts 313°
2026-05-01 10:45 -37.78082 145.17082 3985 ft 228 kts 311°
2026-05-01 10:45 -37.77223 145.15368 3992 ft 232 kts 302°
2026-05-01 10:45 -37.76537 145.13540 3635 ft 232 kts 299°
2026-05-01 10:46 -37.75866 145.11657 3216 ft 234 kts 297°
2026-05-01 10:46 -37.75298 145.09790 3193 ft 220 kts 295°
2026-05-01 10:46 -37.74779 145.08057 3211 ft 200 kts 297°
2026-05-01 10:46 -37.74264 145.06515 3198 ft 179 kts 299°
2026-05-01 10:47 -37.73787 145.05075 2661 ft 185 kts 298°
2026-05-01 10:47 -37.73322 145.03602 2487 ft 174 kts 298°
2026-05-01 10:47 -37.72852 145.02109 2469 ft 185 kts 294°
2026-05-01 10:47 -37.72797 145.00491 2501 ft 192 kts 269°
2026-05-01 10:48 -37.72943 144.98790 2489 ft 190 kts 273°
2026-05-01 10:48 -37.72942 144.97147 2488 ft 189 kts 278°
2026-05-01 10:48 -37.72939 144.95465 2488 ft 191 kts 275°
2026-05-01 10:48 -37.73020 144.93797 2491 ft 191 kts 273°
2026-05-01 10:49 -37.73076 144.92130 2493 ft 187 kts 276°
2026-05-01 10:49 -37.73107 144.90567 2478 ft 168 kts 276°
2026-05-01 10:49 -37.73147 144.89109 2223 ft 165 kts 276°
2026-05-01 10:49 -37.73184 144.87634 1811 ft 169 kts 276°
2026-05-01 10:50 -37.73155 144.86164 1474 ft 164 kts 285°
2026-05-01 10:50 -37.72720 144.84926 1285 ft 151 kts 322°
2026-05-01 10:50 -37.71779 144.84530 1175 ft 145 kts 359°
2026-05-01 10:50 -37.70749 144.84507 1026 ft 150 kts 356°
2026-05-01 10:51 -37.69751 144.84265 721 ft 143 kts 351°
2026-05-01 10:51 -37.68787 144.84091 474 ft 137 kts 357°
2026-05-01 10:51 -37.67875 144.83969 369 ft 122 kts 350°
2026-05-01 10:51 -37.67353 144.83871 385 ft 40 kts 352°
2026-05-01 10:52 -37.67068 144.83833 394 ft 42 kts
2026-05-01 10:52 -37.66866 144.83901 398 ft 0 kts 21°
2026-05-01 10:53 -37.66849 144.83909 398 ft 8 kts 21°
2026-05-01 10:54 -37.66769 144.83957 399 ft 17 kts 32°
2026-05-01 10:54 -37.66734 144.83981 402 ft 1 kts 31°
2026-05-01 10:54 -37.66722 144.84043 404 ft 15 kts 80°
2026-05-01 10:54 -37.66745 144.84152 404 ft 24 kts 129°
2026-05-01 10:55 -37.66899 144.84245 397 ft 5 kts 100°
2026-05-01 10:55 -37.66900 144.84322 400 ft 11 kts 84°
2026-05-01 10:55 -37.66897 144.84353 402 ft 0 kts 83°